Location: Unspecified
(0.0000°N, 0.0000°E)
Time: 23:16:42
(UTC+00:00)

Vanguard 2 - All Passes

Search period start: 28 May 2022 00:00
Search period end: 07 June 2022 00:00
Orbit: 552 x 2935 km, 32.9° (Epoch: 28 May)

Date Brightness Start Highest point End Pass type
(mag) Time Alt. Az. Time Alt. Az. Time Alt. Az.
28 May - 01:02:50 10° SW 01:07:52 59° SE 01:15:59 10° ENE visible
28 May - 03:11:11 10° W 03:17:39 35° NNW 03:27:48 10° NE visible
28 May - 05:24:31 10° NW 05:31:04 16° N 05:39:13 10° NNE visible
28 May - 07:40:18 10° NNW 07:48:11 15° N 07:56:45 10° NE daylight
28 May - 09:51:56 10° NNW 10:05:42 27° NNE 10:18:17 10° ENE daylight
28 May - 12:03:17 10° NW 12:20:26 58° NNE 12:32:32 10° ESE daylight
28 May - 14:17:12 10° WNW 14:32:03 57° SW 14:41:20 10° SE daylight
28 May - 16:37:41 10° WSW 16:41:48 13° SW 16:45:15 10° SSW daylight
28 May - 23:15:52 10° SSE 23:17:10 11° SE 23:18:34 10° SE night (unlit)
29 May - 01:19:57 10° WSW 01:25:08 86° NW 01:33:41 10° NE visible
29 May - 03:29:33 10° WNW 03:35:43 25° NNW 03:44:40 10° NNE visible
29 May - 05:44:21 10° NNW 05:49:55 14° N 05:56:27 10° NNE daylight
29 May - 07:58:23 10° NNW 08:07:24 16° NNE 08:17:05 10° NE daylight
29 May - 10:09:01 10° NNW 10:24:10 33° NNE 10:37:32 10° E daylight
29 May - 12:20:37 10° NW 12:38:11 74° NE 12:50:16 10° ESE daylight
29 May - 14:35:40 10° WNW 14:49:19 42° SW 14:58:09 10° SSE daylight
29 May - 23:31:03 10° S 23:34:21 20° SE 23:38:29 10° E night (unlit)
30 May - 01:37:23 10° WSW 01:42:35 54° NNW 01:51:02 10° NE visible
30 May - 03:48:24 10° WNW 03:53:56 19° NNW 04:01:20 10° NNE visible
30 May - 06:04:10 10° NNW 06:08:56 12° N 06:14:19 10° NNE daylight
30 May - 08:15:52 10° NNW 08:26:26 19° NNE 08:37:36 10° ENE daylight
30 May - 10:26:05 10° NW 10:42:23 42° NNE 10:56:18 10° E daylight
30 May - 12:38:08 10° NW 12:55:47 89° SSW 13:07:42 10° SE daylight
30 May - 14:54:39 10° W 15:06:36 31° SW 15:14:47 10° SSE daylight
30 May - 23:47:29 10° SSW 23:51:29 36° SE 23:56:56 10° ENE night (unlit)
31 May - 01:55:11 10° W 02:00:16 35° NNW 02:08:04 10° NE visible
31 May - 04:07:55 10° NW 04:12:21 14° N 04:17:47 10° NNE visible
31 May - 06:23:14 10° NNW 06:28:05 12° N 06:33:26 10° NNE daylight
31 May - 08:33:02 10° NNW 08:45:12 23° NNE 08:57:52 10° ENE daylight
31 May - 10:43:11 10° NW 11:00:24 52° NNE 11:14:39 10° ESE daylight
31 May - 12:55:57 10° WNW 13:13:14 71° SW 13:24:55 10° SE daylight
31 May - 15:14:18 10° W 15:24:01 22° SW 15:31:08 10° S daylight
01 Jun - 00:04:23 10° SW 00:08:39 69° SE 00:14:49 10° ENE night (unlit)
01 Jun - 02:13:25 10° WNW 02:18:08 23° NNW 02:24:50 10° NNE visible
01 Jun - 04:28:29 10° NNW 04:30:58 11° N 04:33:42 10° N visible
01 Jun - 06:41:13 10° NNW 06:47:12 13° NNE 06:53:52 10° NE daylight
01 Jun - 08:50:03 10° NNW 09:03:42 29° NNE 09:17:39 10° E daylight
01 Jun - 11:00:23 10° NW 11:18:14 65° NE 11:32:38 10° ESE daylight
01 Jun - 13:14:04 10° WNW 13:30:36 55° SW 13:41:57 10° SE daylight
01 Jun - 15:34:51 10° WSW 15:41:38 16° SW 15:47:04 10° S daylight
01 Jun - 22:16:39 10° SSE 22:17:58 11° SE 22:19:19 10° SE night (unlit)
02 Jun - 00:21:39 10° WSW 00:25:57 66° NNW 00:32:17 10° NE night (unlit)
02 Jun - 02:32:15 10° NW 02:36:10 16° NNW 02:41:12 10° NNE visible
02 Jun - 06:58:28 10° NNW 07:06:10 15° NNE 07:14:54 10° NE daylight
02 Jun - 09:07:01 10° NNW 09:21:56 36° NNE 09:36:55 10° E daylight
02 Jun - 11:17:44 10° NW 11:35:54 80° NE 11:50:18 10° ESE daylight
02 Jun - 13:32:38 10° WNW 13:48:00 42° SW 13:58:47 10° SSE daylight
02 Jun - 15:57:31 10° SW 15:59:30 11° SSW 16:01:22 10° SSW daylight
02 Jun - 22:32:08 10° SSW 22:35:15 22° SE 22:38:43 10° E night (unlit)
03 Jun - 00:39:18 10° W 00:43:27 37° NNW 00:49:21 10° NE visible
03 Jun - 02:52:22 10° NNW 02:54:23 11° NNW 02:56:37 10° N visible
03 Jun - 07:15:24 10° NNW 07:24:55 19° NNE 07:35:49 10° ENE daylight
03 Jun - 09:24:00 10° NW 09:39:57 46° NNE 09:55:40 10° E daylight
03 Jun - 11:35:17 10° WNW 11:53:29 83° SW 12:07:44 10° SE daylight
03 Jun - 13:51:43 10° W 14:05:28 32° SW 14:15:29 10° SSE daylight
03 Jun - 22:48:43 10° SW 22:52:29 42° SE 22:56:54 10° ENE night (unlit)
04 Jun - 00:57:25 10° WNW 01:01:07 22° NNW 01:06:02 10° NNE visible
04 Jun - 07:32:13 10° NNW 07:43:24 24° NNE 07:56:15 10° ENE daylight
04 Jun - 09:41:03 10° NW 09:57:47 57° NE 10:13:59 10° ESE daylight
04 Jun - 11:53:08 10° WNW 12:10:59 67° SW 12:24:56 10° SE daylight
04 Jun - 14:11:25 10° W 14:23:07 24° SW 14:32:00 10° SSE daylight
04 Jun - 23:05:47 10° SW 23:09:43 89° SE 23:14:30 10° NE night (unlit)
05 Jun - 01:16:20 10° NW 01:18:58 14° NNW 01:22:06 10° N visible
05 Jun - 05:43:40 10° N 05:46:31 11° NNE 05:49:35 10° NNE daylight
05 Jun - 07:49:00 10° NNW 08:01:36 30° NNE 08:16:07 10° E daylight
05 Jun - 09:58:13 10° NW 10:15:28 71° NE 10:31:55 10° ESE daylight
05 Jun - 12:11:18 10° WNW 12:28:30 53° SW 12:41:58 10° SE daylight
05 Jun - 14:31:53 10° WSW 14:40:59 18° SSW 14:48:17 10° S daylight
05 Jun - 21:16:27 10° S 21:18:53 15° SSE 21:21:12 10° ESE night (unlit)
05 Jun - 23:23:15 10° WSW 23:27:03 44° NNW 23:31:41 10° NE night (unlit)
06 Jun - 05:59:23 10° N 06:05:13 14° NNE 06:11:55 10° NE daylight
06 Jun - 08:05:50 10° NNW 08:19:34 38° NNE 08:35:23 10° E daylight
06 Jun - 10:15:34 10° NW 10:33:06 86° NE 10:49:35 10° SE daylight
06 Jun - 12:29:53 10° W 12:46:04 42° SW 12:58:51 10° SSE daylight
06 Jun - 14:53:20 10° SW 14:59:08 13° SSW 15:04:07 10° S daylight
06 Jun - 21:32:39 10° SSW 21:36:19 28° SSE 21:39:47 10° E night (unlit)
06 Jun - 23:41:14 10° W 23:44:30 23° NNW 23:48:24 10° NNE night (unlit)
